This is the latest recevied weather packets stored in our database for station/object SP1BMW-13. If no packets are shown the sender has not sent any weather packets the latest 10 day(s).
| Time | Temp. | Humidity | Pressure | Rain* | Wind** | Luminosity | Snow |
|---|---|---|---|---|---|---|---|
| 1787942718 | 21.11° C | 77% | 1007.7 hPa | 0 mm | 0.89 m/s, 44° | 0 W/m² | - |
| 1787942658 | 21.11° C | 77% | 1007.7 hPa | 0 mm | 0 m/s | 0 W/m² | - |
| 1787942598 | 21.11° C | 77% | 1007.8 hPa | 0 mm | 0 m/s | 0 W/m² | - |
| 1787942538 | 21.11° C | 76% | 1007.9 hPa | 0 mm | 0 m/s | 0 W/m² | - |
| 1787942478 | 21.11° C | 76% | 1008 hPa | 0 mm | 0.45 m/s, 54° | 0 W/m² | - |
| 1787942418 | 21.11° C | 76% | 1007.9 hPa | 0 mm | 0.45 m/s, 322° | 0 W/m² | - |
| 1787942358 | 21.11° C | 76% | 1008.1 hPa | 0 mm | 0.45 m/s, 64° | 0 W/m² | - |
| 1787942298 | 21.11° C | 76% | 1007.9 hPa | 0 mm | 0 m/s | 0 W/m² | - |
| 1787942238 | 21.11° C | 76% | 1008 hPa | 0 mm | 0.89 m/s, 42° | 0 W/m² | - |
| 1787942178 | 21.11° C | 76% | 1008.1 hPa | 0 mm | 0.45 m/s, 49° | 0 W/m² | - |
| 1787942118 | 21.11° C | 76% | 1008.1 hPa | 0 mm | 0.45 m/s, 46° | 0 W/m² | - |
| 1787942058 | 21.11° C | 76% | 1008.2 hPa | 0 mm | 0.45 m/s, 26° | 0 W/m² | - |
| 1787941998 | 21.11° C | 76% | 1008.1 hPa | 0 mm | 0.45 m/s, 334° | 0 W/m² | - |
| 1787941938 | 21.11° C | 76% | 1008.2 hPa | 0 mm | 0 m/s | 0 W/m² | - |
| 1787941878 | 21.11° C | 76% | 1008.2 hPa | 0 mm | 0.45 m/s, 334° | 0 W/m² | - |
| 1787941818 | 21.11° C | 76% | 1008.1 hPa | 0 mm | 0 m/s | 0 W/m² | - |
| 1787941758 | 21.11° C | 75% | 1008 hPa | 0 mm | 0.45 m/s, 36° | 0 W/m² | - |
| 1787941698 | 21.11° C | 76% | 1008.1 hPa | 0 mm | 0.45 m/s, 12° | 0 W/m² | - |
| 1787941638 | 21.11° C | 75% | 1008 hPa | 0 mm | 0 m/s | 0 W/m² | - |
| 1787941578 | 21.11° C | 76% | 1007.9 hPa | 0 mm | 0 m/s | 0 W/m² | - |
| 1787941517 | 21.11° C | 76% | 1007.7 hPa | 0 mm | 0.89 m/s, 109° | 0 W/m² | - |
| 1787941458 | 21.11° C | 75% | 1007.7 hPa | 0 mm | 0 m/s | 0 W/m² | - |
| 1787941397 | 21.11° C | 76% | 1007.5 hPa | 0 mm | 0.45 m/s, 32° | 0 W/m² | - |
| 1787941338 | 21.11° C | 76% | 1007.7 hPa | 0 mm | 0.45 m/s, 121° | 0 W/m² | - |
| 1787941277 | 21.11° C | 76% | 1007.5 hPa | 0 mm | 1.34 m/s, 107° | 0 W/m² | - |
* Rain latest hour (hover to see other rain measurements)
** Current wind speed in m/s (hover to see current wind gust speed)